Relay 2

operational
NORAD ID: 737 Int'l Des: 1964-003 Owner: GSFC Country: US
MEOELLIPTICALHEO_ELLIPTICAL

关于 Relay 2

正在加载描述...

实时位置

正在加载3D地球...

即将过境

高度历史

Altitude vs Time

uPlot chart will show altitude changes over time

两行轨道根数

1 737U 64003A 26063.13795120 -.00000010 00000-0 00000+0 0 9996
2 737 46.4641 103.9054 2601710 263.5112 66.6056 7.39537832678325
Epoch: Mar 4, 2026 • Age: 16 hours

当前状态

高度 5119.5 km
速度 5.79 km/s
星下点 11.65°N, 65.57°E
类型 other

大型星座

Loading constellations...